Treviso/Istrana, Italy

1:41 PM CET on January 24, 2017 (GMT +0100)
Istrana Mil

Weather History for LIPS - October, 2013

Change the Weather History Date:

Saturday, October 19, 2013

  Actual Average Record
Temperature  
Mean Temperature 56 °F -  
Max Temperature 65 °F 58 °F 74 °F (2014)
Min Temperature 46 °F 41 °F 39 °F (2007)
Degree Days  
Heating Degree Days 10    
Growing Degree Days 6 (Base 50)    
Moisture  
Dew Point 50 °F    
Average Humidity 76    
Maximum Humidity 94    
Minimum Humidity 46    
Precipitation  
Precipitation 0.00 in 0.12 in - ()
Sea Level Pressure  
Sea Level Pressure 30.18 in    
Wind  
Wind Speed 0 mph ()    
Max Wind Speed 4 mph    
Max Gust Speed -    
Visibility 2.6 miles    
Events      
Averages and records for this station are not official NWS values.
T = Trace of Precipitation, MM = Missing Value Source: Averaged Metar Reports

Daily Weather History Graph

Daily Weather History Graph

Search for Another Location

Airport or City:

Trip Planner

Search our weather history database for the weather conditions in past years. The results will help you decide how hot, cold, wet, or windy it might be!

Date:

Astronomy

Oct. 19, 2013 Rise Set
Actual Time 7:33 AM CEST 6:18 PM CEST
Civil Twilight 7:03 AM CEST 6:49 PM CEST
Nautical Twilight 6:28 AM CEST 7:23 PM CEST
Astronomical Twilight 5:54 AM CEST 7:57 PM CEST
Moon 6:32 PM CEST (10/19) 7:55 AM CEST (10/19)
Length of Visible Light 11h 45m
Length of Day
10h 45m
Full, 100% of the Moon is Illuminated
Oct 19
Full
Oct 27
Last Quarter
Nov 3
New
Nov 10
First Quarter
Nov 17
Full

Hourly Weather History & Observations

Time (CEST) Temp. Dew Point Humidity Pressure Visibility Wind Dir Wind Speed Gust Speed Precip Events Conditions
12:55 AM 53.6 °F 50.0 °F 88% 30.12 in - North - - N/A   Mist
1:55 AM 51.8 °F 50.0 °F 94% 30.12 in - North - - N/A   Mist
2:00 AM 52 °F 49 °F 87% 30.14 in 1 mi Calm Calm - -   Mist
2:55 AM 51.8 °F 50.0 °F 94% 30.15 in - North - - N/A   Mist
3:55 AM 51.8 °F 50.0 °F 94% 30.12 in - North - - N/A   Mist
4:55 AM 51.8 °F 48.2 °F 88% 30.12 in - North - - N/A   Mist
5:00 AM 51 °F 48 °F 87% 30.15 in 1 mi Calm Calm - -   Mist
5:55 AM 51.8 °F 48.2 °F 88% 30.12 in - North - - N/A   Mist
6:55 AM 51.8 °F 48.2 °F 88% 30.12 in - North - - N/A   Mist
7:55 AM 48.2 °F 44.6 °F 87% 30.15 in - North - - N/A   Mist
8:00 AM 47 °F 44 °F 85% 30.17 in 2 mi Calm Calm - -   Mist
8:55 AM 50.0 °F 46.4 °F 87% 30.15 in - North - - N/A   Unknown
9:55 AM 55.4 °F 50.0 °F 82% 30.18 in - North - - N/A   Unknown
10:55 AM 59.0 °F 50.0 °F 72% 30.18 in - North - - N/A   Unknown
11:00 AM 60 °F 50 °F 61% 30.21 in 5 mi Calm Calm - -   Mist
11:55 AM 62.6 °F 48.2 °F 59% 30.21 in - North - - N/A   Unknown
12:55 PM 62.6 °F 46.4 °F 55% 30.18 in - North - - N/A   Unknown
1:55 PM 64.4 °F 48.2 °F 56% 30.18 in - North - - N/A   Unknown
2:00 PM 65 °F 49 °F 46% 30.21 in 4 mi South 3.5 mph - -   Mist
2:55 PM 66.2 °F 48.2 °F 52% 30.18 in - North - - N/A   Partly Cloudy
3:55 PM 64.4 °F 50.0 °F 59% 30.18 in - North - - N/A   Unknown
4:55 PM 64.4 °F 50.0 °F 59% 30.18 in - North - - N/A   Partly Cloudy
5:00 PM 64 °F 50 °F 51% 30.21 in 4 mi SSE 2.3 mph - -   Mist
5:55 PM 62.6 °F 50.0 °F 63% 30.18 in - North - - N/A   Scattered Clouds
6:55 PM 60.8 °F 51.8 °F 72% 30.21 in - North - - N/A   Mostly Cloudy
7:55 PM 60.8 °F 53.6 °F 77% 30.21 in - North - - N/A   Mostly Cloudy
8:00 PM 61 °F 54 °F 72% 30.23 in 2 mi Calm Calm - -   Mist
8:55 PM 59.0 °F 55.4 °F 88% 30.21 in - North - - N/A   Mostly Cloudy
9:55 PM 59.0 °F 55.4 °F 88% 30.24 in - North - - N/A   Mostly Cloudy
10:55 PM 57.2 °F 53.6 °F 88% 30.24 in - North - - N/A   Scattered Clouds
11:00 PM 58 °F 54 °F 81% 30.26 in 2 mi Calm Calm - -   Mist
11:55 PM 57.2 °F 53.6 °F 88% 30.24 in - North - - N/A   Scattered Clouds